Date,TemperatureHighF,TemperatureAvgF,TemperatureLowF,DewpointHighF,DewpointAvgF,DewpointLowF,HumidityHigh,HumidityAvg,HumidityLow,PressureMaxIn,PressureMinIn,WindSpeedMaxMPH,WindSpeedAvgMPH,GustSpeedMaxMPH,PrecipitationSumIn
2013-1-1,59,39,28,59,33,19,100,79,59,30.61,29.32,17,6,32,0.22
2013-1-2,59,34,24,57,26,17,100,76,57,30.61,29.32,21,6,45,1.42
2013-1-3,57,34,26,57,28,22,100,78,60,30.60,29.32,20,4,45,0.27
2013-1-4,59,37,28,54,31,22,100,78,60,30.61,29.32,23,6,45,1.42
2013-1-5,57,40,32,57,32,27,100,72,53,30.60,29.46,17,4,30,0.03
2013-1-6,59,41,28,59,35,22,100,80,58,30.61,29.32,21,5,45,0.27
2013-1-7,50,43,28,50,33,22,100,69,51,30.36,29.32,17,8,36,0.12
2013-1-8,59,38,30,59,34,24,100,86,59,30.61,29.46,21,4,38,0.22
2013-1-9,59,45,32,49,38,22,100,78,68,30.61,29.32,21,12,45,1.42
2013-1-10,59,44,28,59,35,22,100,72,48,30.61,29.32,20,6,45,0.65
2013-1-11,59,42,28,59,37,22,100,84,60,30.61,29.32,21,3,45,1.42
2013-1-12,59,44,28,59,42,22,100,95,68,30.51,29.32,21,3,45,0.01
2013-1-13,57,44,28,57,43,22,100,94,59,30.61,29.32,21,3,38,0.01
2013-1-14,59,47,29,59,44,24,100,88,59,30.61,29.32,17,4,45,0.13
2013-1-15,59,39,28,59,36,22,100,89,68,30.61,29.32,21,4,45,1.42
2013-1-16,50,37,29,50,35,24,100,94,59,30.60,29.46,17,4,32,0.05
2013-1-17,57,41,28,57,36,22,100,84,59,30.53,29.46,20,5,32,0.03
2013-1-18,53,34,27,53,26,12,100,73,47,30.61,29.46,17,6,36,0.84
2013-1-19,59,40,28,59,33,18,100,77,46,30.61,29.32,20,6,45,0.35
2013-1-20,59,44,29,59,33,21,100,68,31,30.61,29.32,30,8,45,1.33
2013-1-21,59,36,28,59,28,16,100,75,51,30.60,29.32,18,4,45,1.33
2013-1-22,59,30,14,59,21,0,100,71,39,30.61,29.32,22,7,45,0.27
2013-1-23,59,29,12,59,23,0,100,77,53,30.61,29.32,21,5,45,1.33
2013-1-24,59,29,13,59,21,4,100,74,41,30.61,29.32,23,6,38,0.40
2013-1-25,59,34,14,59,27,4,100,78,59,30.60,29.58,21,8,38,0.03
2013-1-26,59,30,16,59,26,13,100,83,56,30.61,29.32,20,5,45,0.01
2013-1-27,59,32,19,59,24,13,100,72,48,30.61,29.32,21,4,45,1.42
2013-1-28,59,36,27,59,32,18,100,87,60,30.53,29.32,20,4,45,0.19
2013-1-29,59,45,32,59,43,28,100,91,68,30.53,29.32,17,5,45,0.27
2013-1-30,60,47,28,59,46,22,100,95,59,30.61,29.32,23,3,45,1.42
2013-1-31,62,44,28,62,35,16,100,73,45,30.61,29.02,37,11,41,0.86
2013-2-1,59,34,25,59,25,12,100,71,44,30.61,29.32,26,7,45,1.42
2013-2-2,26,26,26,25,25,24,96,95,93,30.08,30.05,5,1,7,6.14
2013-2-3,59,33,24,59,30,23,100,89,59,30.51,29.58,17,3,31,0.03
2013-2-4,49,42,28,49,34,18,100,73,59,30.29,29.46,17,13,30,0.05
2013-2-5,59,33,28,59,31,20,100,92,60,30.61,29.32,21,4,45,1.42
2013-2-6,59,37,28,59,28,14,100,70,52,30.60,29.32,17,6,32,0.02
2013-2-7,59,34,25,59,26,14,100,72,53,30.53,29.46,21,4,38,0.63
2013-2-8,59,36,28,59,34,22,100,93,68,30.60,29.32,21,7,45,0.05
2013-2-9,59,33,21,59,30,16,100,90,68,30.61,29.55,24,5,38,0.11
2013-2-10,57,32,17,57,27,15,100,81,59,30.60,29.32,17,3,36,0.26
2013-2-11,59,39,29,59,37,26,100,93,68,30.61,29.55,17,2,36,0.49
2013-2-12,59,41,28,59,35,22,100,79,60,30.60,29.32,23,6,36,0.10
2013-2-13,59,38,28,59,33,22,100,84,59,30.60,29.32,17,2,45,0.03
2013-2-14,50,42,28,49,36,22,100,79,54,30.60,29.32,21,6,38,0.55
2013-2-15,59,42,28,59,37,22,100,84,48,30.61,29.32,17,5,45,0.03
2013-2-16,50,36,31,49,29,22,100,76,60,30.60,29.32,18,8,26,0.06
2013-2-17,59,30,19,59,19,8,100,65,41,30.61,29.32,28,10,45,0.10
2013-2-18,59,34,19,59,28,7,100,79,60,30.61,29.32,29,5,45,4.22
2013-2-19,59,43,28,59,40,22,100,91,71,30.61,29.58,20,7,30,0.26
2013-2-20,59,34,26,59,26,16,100,71,52,30.61,29.32,23,8,45,0.22
2013-2-21,59,34,26,59,26,16,100,72,52,30.61,29.32,32,8,45,0.40
2013-2-22,59,40,28,59,38,22,100,90,68,30.61,29.32,16,4,45,1.42
2013-2-23,50,45,29,49,38,26,100,78,69,30.61,29.46,17,14,32,0.38
2013-2-24,59,38,30,59,35,22,100,88,60,30.61,29.32,26,7,45,1.42
2013-2-25,59,39,29,59,33,24,100,81,60,30.51,29.55,20,4,30,0.03
2013-2-26,59,40,28,59,36,22,100,87,60,30.61,29.32,21,5,38,0.14
2013-2-27,59,42,28,59,40,22,100,93,59,30.61,29.32,31,7,45,1.33
2013-2-28,57,43,30,57,40,26,100,89,68,30.40,29.55,17,4,36,0.13
2013-3-1,59,41,28,59,36,22,100,82,60,30.60,29.46,18,7,32,0.03
2013-3-2,59,38,28,59,32,22,100,80,60,30.61,29.32,21,7,45,1.42
2013-3-3,59,36,28,57,29,22,100,76,55,30.61,29.32,22,7,45,1.42
2013-3-4,59,35,28,59,28,21,100,75,56,30.53,29.32,24,8,45,0.10
2013-3-5,59,40,28,57,32,22,100,74,50,30.61,29.32,21,5,45,1.33
2013-3-6,59,43,36,49,38,22,100,80,69,30.61,29.32,21,7,45,0.12
2013-3-7,59,38,28,53,36,22,100,95,72,30.61,29.32,21,4,45,1.42
2013-3-8,54,37,28,54,35,22,100,95,59,30.60,29.32,21,4,45,0.64
2013-3-9,59,41,28,59,33,22,100,79,37,30.61,29.32,21,5,45,1.03
2013-3-10,59,40,28,59,37,22,100,89,59,30.53,29.32,21,4,38,0.05
2013-3-11,54,44,28,54,42,22,100,94,59,30.51,29.32,21,5,38,0.03
2013-3-12,59,46,30,59,45,22,100,94,69,30.61,29.32,22,5,45,1.42
2013-3-13,59,43,28,59,37,22,100,79,45,30.61,29.32,21,5,45,1.33
2013-3-14,59,39,29,57,25,13,100,62,36,30.61,29.32,28,10,45,1.42
2013-3-15,59,39,28,59,28,16,100,67,46,30.61,29.32,21,7,45,0.50
2013-3-16,54,38,29,54,33,24,100,84,60,30.61,29.46,21,4,38,0.03
2013-3-17,59,36,29,49,30,22,100,80,55,30.61,29.32,21,7,45,0.06
2013-3-18,54,37,28,54,31,16,100,81,60,30.60,29.46,21,6,38,0.11
2013-3-19,54,37,29,54,36,26,100,94,68,30.43,29.32,20,8,30,0.50
2013-3-20,59,40,28,59,31,22,100,70,40,30.61,29.46,20,6,36,0.39
2013-3-21,59,37,28,59,29,17,100,73,45,30.61,29.32,21,6,45,1.42
2013-3-22,59,36,28,59,29,18,100,74,53,30.61,29.32,21,5,45,1.42
2013-3-23,57,41,28,57,30,22,100,68,43,30.61,29.32,20,7,36,0.35
2013-3-24,57,41,29,57,30,24,100,67,45,30.60,29.32,17,5,45,0.06
2013-3-25,59,40,28,59,36,22,100,86,60,30.61,29.32,26,6,45,1.42
2013-3-26,53,41,28,53,35,22,100,82,49,30.53,29.32,17,4,45,1.03
2013-3-27,59,43,28,59,34,22,100,72,37,30.61,29.32,26,6,45,1.33
2013-3-28,59,43,28,59,36,22,100,75,52,30.61,29.32,21,7,45,1.33
2013-3-29,59,46,28,59,34,22,100,67,39,30.61,29.32,21,5,45,1.03
2013-3-30,61,45,28,59,34,22,100,68,29,30.61,29.32,21,5,45,1.42
2013-3-31,59,45,28,59,39,22,100,79,52,30.61,29.32,21,5,45,1.42
2013-4-1,66,46,28,59,40,20,100,81,46,30.61,29.46,20,6,36,0.01
2013-4-2,59,40,28,59,26,17,100,61,33,30.61,29.46,22,6,36,0.01
2013-4-3,59,40,28,59,27,16,100,64,30,30.61,29.32,21,6,45,0.27
2013-4-4,59,42,28,59,31,19,100,67,34,30.53,29.32,20,5,45,0.11
2013-4-5,65,48,32,59,33,24,100,62,23,30.51,29.55,21,6,32,0.27
2013-4-6,59,43,29,59,30,17,100,66,24,30.53,29.32,21,6,45,0.40
2013-4-7,59,46,29,59,39,22,100,78,43,30.61,29.32,27,7,45,1.42
2013-4-8,76,59,48,51,47,42,94,69,33,30.05,29.95,19,4,32,0.00
2013-4-9,82,67,53,56,47,37,95,55,21,29.98,29.87,27,4,32,0.00
2013-4-10,76,64,56,59,52,44,100,68,46,29.95,29.78,25,4,32,0.59
2013-4-11,61,56,49,60,53,46,100,92,76,30.03,29.74,20,6,32,0.02
2013-4-12,49,44,42,46,44,42,100,98,88,30.01,29.70,24,9,32,0.58
2013-4-13,59,49,40,48,42,38,100,79,49,29.95,29.72,17,3,32,0.04
2013-4-14,59,53,45,48,39,32,95,62,37,30.20,29.94,24,5,32,0.00
2013-4-15,57,50,44,46,36,32,91,60,42,30.36,30.20,17,5,32,0.00
2013-4-16,64,56,48,59,53,46,96,88,80,30.35,30.09,26,7,32,0.00
2013-4-17,72,62,54,60,48,36,93,63,29,30.26,30.09,16,5,32,0.00
2013-4-18,58,54,51,54,48,42,100,81,57,30.33,30.08,21,6,32,0.04
2013-4-19,72,61,33,68,60,26,100,95,71,30.61,29.62,18,5,32,0.08
2013-4-20,64,51,29,64,40,24,100,69,36,30.61,29.32,20,8,45,0.50
2013-4-21,59,45,28,59,32,22,100,61,34,30.58,29.32,21,5,45,0.35
2013-4-22,50,46,39,45,37,35,100,73,58,30.59,29.46,16,4,32,1.33
2013-4-23,57,44,28,57,40,22,100,86,59,30.60,29.32,21,6,45,0.10
2013-4-24,71,52,28,57,46,22,100,83,52,30.61,29.55,20,5,31,0.11
2013-4-25,60,50,28,59,42,22,100,75,48,30.60,29.61,17,6,30,0.22
2013-4-26,68,51,30,54,37,22,100,64,25,30.61,29.32,21,3,45,0.55
2013-4-29,59,52,28,59,50,22,100,92,59,30.60,29.71,21,5,38,0.17
2013-4-30,56,52,36,53,46,24,100,83,42,30.39,29.46,17,2,30,0.01
2013-5-1,58,48,28,52,40,22,100,73,55,30.46,29.64,10,1,36,0.40
2013-5-2,62,48,28,50,44,22,100,87,54,30.61,29.32,17,2,31,0.22
2013-5-3,65,53,29,50,43,26,100,71,44,30.61,29.32,17,6,36,1.03
2013-5-4,69,52,30,59,45,24,100,79,44,30.61,29.32,21,5,38,1.03
2013-5-5,63,51,32,59,44,22,100,79,51,30.61,29.32,21,5,45,0.84
2013-5-6,56,54,41,53,52,36,93,91,83,30.18,30.15,5,0,21,0.00
2013-5-7,74,57,28,63,52,22,100,84,60,30.43,29.32,17,4,31,0.55
2013-5-8,65,54,29,63,53,22,100,93,59,30.61,29.32,21,3,45,1.62
2013-5-9,68,56,28,65,53,22,100,91,60,30.60,29.32,17,3,45,1.18
2013-5-10,82,63,28,64,56,22,100,81,44,30.61,29.32,21,3,45,1.42
2013-5-11,68,60,28,68,58,22,100,95,60,30.61,29.32,21,4,45,0.22
2013-5-15,70,51,28,62,46,22,100,83,68,30.61,29.32,21,5,45,1.42
2013-5-16,79,57,28,62,49,22,100,79,42,30.61,29.32,21,4,45,0.03
2013-5-25,54,45,30,54,40,26,100,81,68,30.51,29.46,20,7,32,0.22
2013-5-26,70,54,28,59,40,22,100,64,32,30.60,29.32,22,8,45,0.22
2013-5-27,59,47,45,38,38,22,77,72,72,30.61,29.32,21,17,45,0.00
2013-5-31,90,77,34,64,58,26,92,53,36,30.39,29.71,17,6,23,0.00
2013-6-1,93,68,28,71,60,22,100,76,42,30.61,29.32,21,5,45,0.03
2013-6-22,86,69,33,63,55,24,100,64,40,30.60,29.32,20,6,30,0.10
2013-6-23,88,54,28,74,47,22,100,79,49,30.43,29.32,20,9,36,0.11
2013-6-24,95,59,28,76,51,22,100,78,33,30.60,29.32,21,4,45,0.05
2013-6-25,94,68,30,72,58,22,100,73,40,30.61,29.32,23,4,45,1.42
2013-6-27,85,59,28,75,54,22,100,85,60,30.60,29.46,20,7,32,0.09
2013-6-28,88,65,28,75,58,22,100,81,50,30.61,29.32,17,6,32,0.06
2013-6-29,86,67,28,76,61,22,100,82,49,30.61,29.32,21,4,38,0.03
2013-6-30,87,68,28,77,66,22,100,91,67,30.53,29.46,20,4,36,0.11
2013-7-1,78,65,28,77,63,22,100,95,68,30.61,29.32,25,4,45,1.33
2013-7-4,84,63,33,74,56,26,100,78,68,30.43,29.71,17,5,25,0.62
2013-7-5,92,66,28,77,60,22,100,82,50,30.53,29.32,17,5,45,0.40
2013-7-6,94,65,28,77,59,22,100,81,44,30.60,29.32,21,5,45,1.03
2013-7-7,97,71,28,76,61,22,100,75,42,30.53,29.46,17,5,36,0.40
2013-7-8,91,61,28,73,52,22,100,75,46,30.61,29.32,21,4,38,0.22
2013-7-9,92,71,28,73,61,22,100,72,45,30.61,29.32,21,4,45,1.42
2013-7-10,79,65,33,74,62,27,100,88,70,30.61,29.55,17,3,19,0.00
2013-7-11,86,59,28,76,52,22,100,79,52,30.61,29.32,21,5,45,1.42
2013-7-12,78,62,28,72,56,22,100,82,59,30.61,29.32,21,5,45,0.40
2013-7-13,82,63,28,78,61,22,100,94,60,30.61,29.32,21,5,45,1.42
2013-7-14,92,69,29,78,65,22,100,90,49,30.61,29.32,21,3,45,0.40
2013-7-15,94,60,28,76,52,22,100,79,50,30.61,29.32,21,5,45,0.84
2013-7-16,94,67,29,71,54,24,100,68,39,30.61,29.32,20,5,45,0.22
2013-7-17,83,65,30,73,59,22,100,82,62,30.61,29.32,21,2,45,0.27
2013-7-23,83,63,29,73,56,24,100,80,59,30.53,29.55,17,5,36,0.34
2013-7-24,84,68,28,73,58,22,100,74,53,30.61,29.32,21,6,45,0.27
2013-7-25,69,58,28,61,50,22,100,76,63,30.61,29.32,21,6,45,0.11
2013-7-31,78,74,45,66,62,38,82,68,58,30.17,29.71,17,5,18,0.00
2013-8-1,75,51,28,69,46,22,100,86,59,30.61,29.32,21,4,45,0.22
2013-8-5,80,56,28,59,44,22,100,70,38,30.61,29.32,21,4,45,0.27
2013-8-6,84,66,28,64,53,22,100,67,38,30.61,29.32,21,5,45,1.42
2013-8-7,80,65,28,72,60,22,100,84,59,30.61,29.32,21,6,45,1.42
2013-8-8,82,60,28,77,57,22,100,92,68,30.61,29.32,21,5,45,0.03
2013-8-9,87,63,28,78,60,22,100,90,59,30.61,29.32,23,6,45,1.42
2013-8-14,68,65,41,56,54,36,100,69,63,30.18,29.71,17,5,21,0.10
2013-8-15,81,58,28,59,48,22,100,73,37,30.61,29.32,17,4,45,1.33
2013-8-16,82,66,28,62,55,22,100,73,40,30.61,29.32,21,2,45,0.11
2013-8-17,76,73,70,60,59,57,66,62,54,30.24,30.21,8,2,10,0.00
2013-8-18,77,72,40,66,59,22,100,65,46,30.61,29.32,21,3,45,1.42
2013-8-26,83,79,33,67,63,22,79,59,54,30.61,29.32,21,7,45,0.03
2013-8-30,79,73,33,74,69,27,91,87,72,30.17,29.71,17,5,18,0.00
2013-8-31,88,76,28,75,71,22,100,85,64,30.61,29.32,21,5,45,1.42
2013-9-1,79,77,39,77,74,22,98,91,86,30.61,29.32,21,2,45,1.42
2013-9-2,84,74,28,78,72,22,100,95,70,30.61,29.32,21,2,45,0.21
2013-12-14,33,33,33,32,32,32,94,94,94,30.30,30.30,0,0,0,0.00
2013-12-15,38,38,38,32,32,32,80,80,80,30.20,30.20,0,0,16,0.00
2013-12-16,46,46,45,40,40,40,82,82,82,30.17,30.17,0,0,10,0.00
2013-12-18,45,45,45,45,45,45,100,100,100,29.59,29.57,6,6,16,0.00
2013-12-19,41,39,37,36,36,34,92,86,76,30.10,30.06,5,0,6,0.05
2013-12-20,51,43,34,43,38,34,100,84,65,30.09,29.95,14,2,14,0.00
2013-12-21,60,52,44,57,51,43,100,94,83,29.97,29.87,14,3,14,0.00
2013-12-22,68,64,55,66,62,55,100,94,83,29.94,29.78,19,7,23,0.01
2013-12-23,60,54,41,60,53,37,100,99,85,30.15,29.87,25,4,25,0.54
2013-12-24,42,36,27,37,28,16,86,75,59,30.33,30.08,27,8,27,0.00
2013-12-25,28,24,19,21,15,9,77,67,58,30.51,30.33,26,5,26,0.00
2013-12-26,35,30,26,30,26,20,88,82,75,30.40,30.14,18,3,18,0.00
2013-12-27,41,34,29,29,27,24,89,74,57,30.34,30.24,13,4,17,0.00
2013-12-28,53,42,30,33,30,26,89,67,43,30.27,30.04,23,5,23,0.00
2013-12-29,46,42,40,43,38,32,100,86,59,30.04,29.40,21,4,21,1.35
2013-12-30,45,36,23,43,32,16,100,86,71,30.18,29.66,24,6,24,0.00
2013-12-31,31,26,21,28,19,14,90,73,60,30.26,30.04,16,4,19,0.00
2014-1-1,68,36,20,66,30,13,100,79,46,30.50,29.45,19,4,25,0.19
2014-1-2,67,42,15,64,37,15,100,84,58,30.30,29.67,12,4,24,0.22